Location: Bennemühlen
(52.5740°N, 9.7135°E)
Time: 18:00:52
(UTC+00:00)

A-11 Canister half - Pass Details

Date: 19 February 2026
Orbit: 1512 x 1687 km, 47.2° (Epoch: 8 March)

Event Time Altitude Azimuth Distance (km) Brightness Sun altitude
Rises 22:07:51 0° 255° (WSW) 4,934 11.8 -44.9°
Reaches altitude 10° 22:11:04 10° 252° (WSW) 3,937 11.2 -45.1°
Enters shadow 22:13:03 18° 250° (WSW) 3,338 10.7 -45.3°
Maximum altitude 22:21:00 65° 174° (S) 1,785 - -45.8°
Drops below altitude 10° 22:30:37 10° 96° (E) 3,824 - -46.5°
Sets 22:33:42 0° 94° (E) 4,785 - -46.6°
